"Pseudo-MPEC" for P12gf6X

Created 2025 Oct 7 14:35:12 UT using Find_Orb

Click here for an explanation of pseudo-MPECs

 
 Astrometry: 
     P12gf6X* C2025 10 02.49829602 10 18.034+07 15 58.55   ~A2EZ 22.19wXNEOCPF51
     P12gf6X  C2025 10 02.51197802 10 17.298+07 15 47.01   ~A2EZ 22.21wXNEOCPF51
     P12gf6X  C2025 10 02.53896402 10 15.851+07 15 24.46   ~A2EZ 22.62wXNEOCPF51
     P12gf6X  C2025 10 02.61288002 10 11.921+07 14 22.27   ~A2IK 22.36GVNEOCPF51
     P12gf6X  C2025 10 02.61369202 10 11.867+07 14 21.49   ~A2IK 22.52GVNEOCPF51
     P12gf6X KC2025 10 03.32966502 09 37.36 +07 04 19.5    ~A38Z 22.5 GVNEOCPH21
     P12gf6X KC2025 10 03.33544302 09 37.04 +07 04 14.3    ~A38Z 22.2 GVNEOCPH21
     P12gf6X KC2025 10 03.33804202 09 36.88 +07 04 12.2    ~A38Z 22.1 GVNEOCPH21
     P12gf6X KC2025 10 04.30347002 08 48.890+06 50 48.55   ~A48Z 22.20GVNEOCPV06
     P12gf6X KC2025 10 04.31364302 08 48.318+06 50 40.13   ~A48Z 22.41GVNEOCPV06
     P12gf6X KC2025 10 04.32381402 08 47.731+06 50 31.74   ~A48Z 22.13GVNEOCPV06
     P12gf6X KC2025 10 04.33399002 08 47.166+06 50 23.39   ~A48Z 22.52GVNEOCPV06

Station data:
(F51) Pan-STARRS 1, Haleakala  (N20.707234 W156.255910)  US/Hawaii.
   Observers J. Herman, T. Lowe, P. Minguez, A. Schultz, I. Smith. Measurers
   K. Chambers, T. de Boer, J. Fairlamb, H. Gao, M. Huber, C.-C. Lin, E.
   Magnier, Y. Ramanjooloo, R. Wainscoat, R. Weryk. 1.8-m Ritchey-Chrétien +
   CCD.
(H21) Astronomical Research Observatory, Westfield  (N39.483054 W87.968270)
   US/Illinois.  Observer R. Holmes. Measurers S. Foglia, L. Buzzi, T.
   Linder, R. Holmes. 0.40-m f/5.32 astrograph + CCD.
(V06) Catalina Sky Survey-Kuiper  (N32.416871 W110.732550)  US/Arizona.
   Measurers T. Beuden, V. F. Carvajal, D. Fay, J. B. Fazekas, D. C. Fuls, A.
   R. Gibbs, A. D. Grauer, H. Gröller, J. K. Hogan, R. A. Kowalski, S. M.
   Larson, G. J. Leonard, D. Rankin, R. L. Seaman, F. C. Shelly, K. W.
   Wierzchoś. 1.55-m reflector + CCD.

Orbital elements:  P12gf6X
   Perihelion 2025 Jun 28.723562 +/- 1.51 TT = 17:21:55.7 (JD 2460855.223562)
Epoch 2025 Oct  4.0 TT = JDT 2460952.5   Earth MOID: 0.3030   Ma: 0.0542
M  28.921842440 +/- 1.3             (J2000 ecliptic)             AutoNEOCP
n   0.297316009 +/- 0.0123          Peri.  132.937576 +/- 0.59
a   2.223261355 +/- 0.0614          Node   179.273759 +/- 0.32
e   0.41423137 +/- 0.018            Incl.    6.594086 +/- 0.15
P   3.31502                H 21.77  G  0.15   U  9.8
q 1.302316745 +/- 0.00801    Q 3.144205965 +/- 0.126
From 12 observations 2025 Oct. 2-4 (44.1 hr); mean residual 0".11
Residuals in arcseconds: 
251002 F51  .02-  .02+    251002 F51  .09-  .04-    251004 V06  .18+  .08-    
251002 F51  .01-  .06-    251003 H21  .14+  .23+    251004 V06  .11+  .06-    
251002 F51  .06+  .02+    251003 H21  .03+  .13-    251004 V06  .16-  .00     
251002 F51  .08+  .06+    251003 H21  .26-  .06-    251004 V06  .09-  .10+    

Ephemerides (geocentric):
Date (UTC) HH   RA             Dec           delta  r     elong  mag " sig PA
---- --------  ------------   ------------  ------ ------ -----  --- --------
2025 10 07 15  02 05 52.287   +06 05 13.30  .62110 1.6010 161.7 22.5 3.36  91
2025 10 07 16  02 05 49.995   +06 04 39.29  .62122 1.6012 161.8 22.5 3.42  91
2025 10 07 17  02 05 47.701   +06 04 05.30  .62133 1.6014 161.8 22.5 3.49  91
2025 10 07 18  02 05 45.405   +06 03 31.32  .62145 1.6016 161.9 22.5 3.55  91
2025 10 07 19  02 05 43.107   +06 02 57.35  .62157 1.6018 161.9 22.5 3.61  91
2025 10 07 20  02 05 40.808   +06 02 23.40  .62169 1.6021 162.0 22.5 3.68  91
2025 10 07 21  02 05 38.507   +06 01 49.45  .62180 1.6023 162.0 22.5 3.74  91
2025 10 07 22  02 05 36.204   +06 01 15.52  .62192 1.6025 162.1 22.5 3.81  91
2025 10 07 23  02 05 33.899   +06 00 41.60  .62204 1.6027 162.1 22.4 3.88  91
2025 10 08 00  02 05 31.593   +06 00 07.70  .62216 1.6029 162.2 22.4 3.94  91
2025 10 08 01  02 05 29.285   +05 59 33.80  .62228 1.6031 162.2 22.4 4.01  91
2025 10 08 02  02 05 26.976   +05 58 59.92  .62240 1.6033 162.3 22.4 4.08  91
2025 10 08 03  02 05 24.664   +05 58 26.05  .62252 1.6035 162.3 22.4 4.14  91
2025 10 08 04  02 05 22.352   +05 57 52.19  .62264 1.6037 162.4 22.4 4.21  91
2025 10 08 05  02 05 20.037   +05 57 18.35  .62276 1.6039 162.4 22.4 4.28  91
2025 10 08 06  02 05 17.721   +05 56 44.51  .62288 1.6041 162.5 22.4 4.35  91
2025 10 08 07  02 05 15.403   +05 56 10.69  .62300 1.6043 162.5 22.4 4.42  91
2025 10 08 08  02 05 13.084   +05 55 36.89  .62312 1.6045 162.6 22.4 4.49  91
2025 10 08 09  02 05 10.763   +05 55 03.09  .62324 1.6047 162.6 22.4 4.56  91
2025 10 08 10  02 05 08.440   +05 54 29.31  .62336 1.6049 162.6 22.4 4.63  91
2025 10 08 11  02 05 06.116   +05 53 55.54  .62348 1.6051 162.7 22.4 4.70  91
2025 10 08 12  02 05 03.790   +05 53 21.79  .62361 1.6053 162.7 22.4 4.77  91
2025 10 08 13  02 05 01.463   +05 52 48.05  .62373 1.6055 162.8 22.4 4.85  91
2025 10 08 14  02 04 59.134   +05 52 14.32  .62385 1.6057 162.8 22.4 4.92  91
2025 10 08 15  02 04 56.803   +05 51 40.61  .62398 1.6059 162.9 22.4 4.99  91
2025 10 08 16  02 04 54.471   +05 51 06.90  .62410 1.6061 162.9 22.4 5.07  91
2025 10 08 17  02 04 52.138   +05 50 33.22  .62422 1.6063 163.0 22.4 5.14  90
2025 10 08 18  02 04 49.802   +05 49 59.54  .62435 1.6065 163.0 22.4 5.22  90
2025 10 08 19  02 04 47.466   +05 49 25.88  .62447 1.6068 163.1 22.4 5.29  90
2025 10 08 20  02 04 45.128   +05 48 52.24  .62460 1.6070 163.1 22.4 5.37  90
2025 10 08 21  02 04 42.788   +05 48 18.60  .62472 1.6072 163.2 22.4 5.44  90
2025 10 08 22  02 04 40.447   +05 47 44.98  .62485 1.6074 163.2 22.4 5.52  90
2025 10 08 23  02 04 38.104   +05 47 11.38  .62498 1.6076 163.3 22.4 5.60  90
2025 10 09 00  02 04 35.760   +05 46 37.79  .62510 1.6078 163.3 22.4 5.67  90
2025 10 09 01  02 04 33.415   +05 46 04.21  .62523 1.6080 163.4 22.4 5.75  90
2025 10 09 02  02 04 31.068   +05 45 30.65  .62536 1.6082 163.4 22.4 5.83  90
2025 10 09 03  02 04 28.719   +05 44 57.10  .62548 1.6084 163.5 22.4 5.91  90
2025 10 09 04  02 04 26.369   +05 44 23.57  .62561 1.6086 163.5 22.4 5.99  90
2025 10 09 05  02 04 24.018   +05 43 50.05  .62574 1.6088 163.5 22.4 6.07  90
2025 10 09 06  02 04 21.665   +05 43 16.54  .62587 1.6090 163.6 22.4 6.15  90
2025 10 09 07  02 04 19.311   +05 42 43.05  .62600 1.6092 163.6 22.4 6.23  90
2025 10 09 08  02 04 16.955   +05 42 09.57  .62613 1.6094 163.7 22.4 6.31  90
2025 10 09 09  02 04 14.599   +05 41 36.11  .62626 1.6096 163.7 22.4 6.39  90
2025 10 09 10  02 04 12.240   +05 41 02.67  .62639 1.6098 163.8 22.4 6.47  90
2025 10 09 11  02 04 09.881   +05 40 29.24  .62652 1.6100 163.8 22.4 6.55  90
2025 10 09 12  02 04 07.519   +05 39 55.82  .62665 1.6102 163.9 22.4 6.63  90
2025 10 09 13  02 04 05.157   +05 39 22.42  .62678 1.6104 163.9 22.4 6.72  90
2025 10 09 14  02 04 02.793   +05 38 49.03  .62691 1.6106 164.0 22.4 6.80  90